[Date Prev][Date Next][Thread Prev][Thread Next] - [Date Index][Thread Index][Author Index]
2 Line ISS Keps 9-10
- Subject: [sarex] 2 Line ISS Keps 9-10
- From: "Dave Larsen PhD" <doc@xxxxxxxxxxx>
- Date: Fri, 10 Sep 2004 13:13:45 -0700
ISS
1 25544U 98067A 04254.75444444 .00016725 00000-0 14354-3 0 6618
2 25544 51.6354 248.9732 0005568 132.8649 222.9866 15.69506900331753
----
Via the sarex mailing list at AMSAT.ORG courtesy of AMSAT-NA.
To unsubscribe, send "unsubscribe sarex" to Majordomo@amsat.org
AMSAT Home